User: anonymous   Login
Location: Unspecified
(0.0000°N, 0.0000°E)
Time: 09:33:07
(UTC+00:00)
Language:

SMS 1 - Orbit

View from above orbital plane
View from above orbital plane
View from above satellite
View from above satellite

Ground track
Ground track

The orbit data is extracted from the following two-line orbital elements,

1 07298U 74033A   24113.72366872 -.00000137  00000-0  00000-0 0  9997
2 07298   6.1407 266.3307 0015658  54.9251 338.3826  0.98614585112142
Epoch (UTC): 22 April 2024 17:22:04
Eccentricity: 0.0015658
inclination: 6.1407°
perigee height: 36190 km
apogee height: 36324 km
right ascension of ascending node: 266.3307°
argument of perigee: 54.9251°
revolutions per day: 0.98614585
mean anomaly at epoch: 338.3826°
orbit number at epoch: 11214

The dashed part of the orbit path shows where the satellite is in the earth's shadow,  

DLR